[[{"header":{"parameterUnit":"m.s-1","parameterCategory":1,"la1":30.2991,"la2":30.254,"lo1":-89.0895,"lo2":-89.0444,"dy":0.0017,"dx":0.0017,"nx":28,"ny":28,"refTime":"2025-08-24T03:00:00:Z","depth":0,"parameterNumber":2,"parameterNumberName":"U-component_of_WINDS"},"data":[0,0,0,0,0,0,0,0,0,0,0,0,0,0,0,0,0,0,0,0,0,0,0,0,0,0,0,0,0,0,0,0,0,0,0,0,0,0,0,0,0,0,0,0,0,0,0,0,0,0,0,0,0,0,0,0,0,0,1.8566,1.8568,0,1.8733,1.8735,1.8737,1.8764,1.8762,1.8761,1.8759,1.8936,1.8942,1.8948,0,0,0,0,0,0,0,0,0,0,0,0,0,1.8272,1.8277,1.8566,1.8568,1.857,1.8733,1.8735,1.8738,1.8764,1.8762,1.876,1.8759,1.8934,1.8941,1.8948,0,0,0,0,0,0,0,0,0,0,0,0,0,1.8415,1.8279,1.8565,1.8602,1.8607,1.8733,1.8736,1.8738,1.8764,1.8762,1.876,1.8758,1.8932,1.894,1.8949,1.9051,0,0,1.8977,1.8981,0,0,0,0,0,0,0,0,1.8407,1.8426,1.8595,1.86,1.8606,1.8725,1.8697,1.8843,1.8765,1.8705,1.8759,1.8757,1.8868,1.8882,1.8919,1.9059,1.9066,1.8978,1.8984,1.8988,1.899,0,0,0,0,0,0,0,1.8397,1.8419,1.8632,1.8597,1.8604,1.8612,1.863,1.8724,1.8797,1.871,1.8712,1.8732,1.8871,1.891,1.8923,1.9069,1.8978,1.8986,1.8992,1.8995,1.93,1.9303,0,0,0,0,0,0,1.838,1.8411,1.8627,1.8637,1.8499,1.8619,1.8639,1.8689,1.8796,1.881,1.8733,1.8732,1.8895,1.8912,1.8929,1.9054,1.8988,1.8996,1.9001,1.9297,1.9301,1.9303,0,0,0,0,0,0,1.8374,1.8399,1.862,1.8525,1.8553,1.8627,1.8683,1.8694,1.8733,1.8814,1.8827,1.876,1.8894,1.8917,1.902,1.9061,1.9,1.9009,1.9294,1.9298,1.9302,1.9305,0,0,0,0,0,0,1.8365,1.8397,1.8435,1.8525,1.8558,1.8706,1.8685,1.8699,1.8748,1.8748,1.8842,1.8856,1.8894,1.9006,1.9029,1.9072,1.9016,1.9291,1.9296,1.9301,1.9302,1.9309,1.9314,0,0,0,0,0,1.8354,1.843,1.8437,1.8463,1.8608,1.8709,1.8728,1.8769,1.8751,1.8791,1.8843,1.8853,1.9052,1.9016,1.9042,1.9089,1.9289,1.9295,1.93,1.9299,1.9307,1.9314,0,0,0,0,0,0,1.8345,1.8443,1.8451,1.8558,1.8625,1.8713,1.8764,1.8777,1.8852,1.8849,1.8899,1.892,1.902,1.9065,1.9023,1.9192,1.9169,1.9181,1.9159,1.9168,1.9174,1.9161,1.9023,0,0,0,0,0,1.8355,1.8427,1.851,1.8596,1.8629,1.8691,1.8737,1.8762,1.8834,1.8863,1.8922,1.8993,1.9071,1.9122,1.9199,1.9308,1.9329,1.9353,1.936,1.9364,1.9374,1.9434,1.9446,1.9323,1.9323,1.9323,0,0,1.8377,1.8439,1.8483,1.8596,1.8651,1.8726,1.8715,1.8795,1.8851,1.8876,1.8976,1.9022,1.9104,1.921,1.926,1.9251,1.9412,1.9372,1.9375,1.9382,1.9441,1.9453,1.9463,1.9327,1.9326,1.9325,0,0,1.8455,1.851,1.8587,1.8642,1.8724,1.8764,1.8783,1.8869,1.89,1.9001,1.9021,1.909,1.9224,1.9281,1.9328,1.9426,1.9438,1.945,1.9484,1.9542,1.9552,1.9561,1.9596,1.9608,1.9459,1.9459,1.9459,0,1.8473,1.8585,1.8626,1.8705,1.8754,1.8778,1.8857,1.8909,1.9013,1.9047,1.9034,1.9203,1.926,1.9379,1.9403,1.944,1.9463,1.944,1.9547,1.9556,1.9565,1.9599,1.9612,1.946,1.946,1.946,1.946,0,1.8602,1.868,1.8733,1.883,1.8886,1.8965,1.9018,1.907,1.9091,1.9133,1.9235,1.9304,1.9395,1.9425,1.9448,1.9548,1.954,1.9537,1.9515,1.9577,1.961,1.9623,1.9461,1.9461,1.9461,1.9461,0,0,1.868,1.8797,1.8816,1.886,1.8952,1.9014,1.9094,1.9181,1.9224,1.9295,1.9363,1.9476,1.9473,1.9526,1.9555,1.9606,1.9679,1.9597,1.96,1.9609,1.9793,1.9794,1.9809,1.9687,1.969,1.9692,1.9786,0,1.8768,1.891,1.8949,1.9069,1.9141,1.9165,1.9234,1.9299,1.934,1.9408,1.9455,1.9533,1.9524,1.9556,1.9607,1.9659,1.9716,1.9653,1.9752,1.9755,1.973,1.9826,1.9828,1.9913,1.9799,1.9801,1.9803,0,1.8891,1.8962,1.9088,1.917,1.9202,1.9264,1.9346,1.9411,1.9484,1.9511,1.9569,1.9593,1.9678,1.9651,1.9769,1.9725,1.9768,1.9799,1.9804,1.9814,1.9782,1.9839,1.9942,1.9954,1.9824,1.9822,1.982,0,1.8934,1.9061,1.9153,1.919,1.9288,1.9331,1.9374,1.9445,1.9494,1.9567,1.96,1.9682,1.9727,1.979,1.9836,1.9812,1.995,1.9927,1.9975,1.9973,2.0003,2.0,2.0113,2.0031,2.0031,2.003,2.003,0,1.9028,1.9105,1.9173,1.923,1.9317,1.9361,1.9446,1.949,1.9553,1.9619,1.9645,1.9707,1.9764,1.9834,1.987,1.9962,1.9983,2.0007,2.0015,2.0004,2.0001,2.0033,2.0028,2.0034,2.0033,2.0032,2.0032,0,1.9091,1.914,1.9242,1.9325,1.9348,1.9408,1.948,1.9536,1.9578,1.9661,1.9684,1.9749,1.9833,1.9884,1.9991,2.0015,2.0116,2.0123,2.009,2.0094,2.0139,2.0134,2.0277,2.0297,2.0201,2.0202,2.0203,0,1.9148,1.9207,1.9296,1.9341,1.9384,1.9457,1.9507,1.9553,1.9605,1.9692,1.9738,1.9823,1.9893,2.0025,2.0083,2.0164,2.0173,2.0217,2.0186,2.0172,2.0173,2.0169,2.0175,2.0223,2.0223,2.0224,2.0225,0,1.9243,1.9264,1.9335,1.9413,1.9472,1.9537,1.9601,1.9637,1.9694,1.9751,1.9835,1.9889,1.9997,2.008,2.0166,2.0212,2.0228,2.0234,2.0249,2.0238,2.0217,2.0228,2.0104,2.0231,2.023,2.023,2.0229,2.0229,1.9305,1.9358,1.9428,1.9506,1.9559,1.9618,1.9675,1.9723,1.9793,1.9883,1.9907,1.9995,2.0067,2.0184,2.0231,2.0301,2.0295,2.0317,2.0323,2.0328,2.0328,2.0205,2.0318,2.0317,2.0317,2.0317,2.0317,0,1.9401,1.9447,1.9518,1.9606,1.9667,1.9675,1.9747,1.9798,1.9875,1.994,2.0007,2.0104,2.0185,2.0249,2.0332,2.0376,2.0386,2.0397,2.0394,2.0404,2.0329,2.0307,2.0387,2.0387,2.0387,2.0387,2.0387,2.0387,1.9458,1.9548,1.9578,1.9694,1.9741,1.9826,1.9866,1.9921,1.9973,2.0079,2.0146,2.0186,2.0251,2.0339,2.0414,2.0431,2.046,2.0469,2.0488,2.0417,2.0409,2.0402,2.0381,2.0476,2.0476,2.0556,2.0557,2.0557]},{"header":{"parameterUnit":"m.s-1","parameterCategory":1,"la1":30.2991,"la2":30.254,"lo1":-89.0895,"lo2":-89.0444,"dy":0.0017,"dx":0.0017,"nx":28,"ny":28,"refTime":"2025-08-24T03:00:00:Z","depth":0,"parameterNumber":3,"parameterNumberName":"V-component_of_WINDS"},"data":[0,0,0,0,0,0,0,0,0,0,0,0,0,0,0,0,0,0,0,0,0,0,0,0,0,0,0,0,0,0,0,0,0,0,0,0,0,0,0,0,0,0,0,0,0,0,0,0,0,0,0,0,0,0,0,0,0,0,2.1693,2.1694,0,2.1793,2.1794,2.1795,2.1757,2.1755,2.1752,2.175,2.185,2.1855,2.186,0,0,0,0,0,0,0,0,0,0,0,0,0,2.1464,2.1469,2.1693,2.1694,2.1695,2.1792,2.1794,2.1795,2.1757,2.1755,2.1752,2.1749,2.1849,2.1854,2.186,0,0,0,0,0,0,0,0,0,0,0,0,0,2.1564,2.147,2.1692,2.1688,2.1689,2.1792,2.1794,2.1795,2.1758,2.1755,2.1751,2.1748,2.1847,2.1854,2.1861,2.1974,0,0,2.1883,2.1886,0,0,0,0,0,0,0,0,2.1558,2.1572,2.1688,2.1689,2.169,2.1759,2.175,2.1855,2.1759,2.1732,2.175,2.1746,2.1822,2.1831,2.1858,2.1978,2.1983,2.1883,2.1888,2.1891,2.1893,0,0,0,0,0,0,0,2.1551,2.1567,2.1732,2.1689,2.169,2.1679,2.169,2.177,2.1795,2.1734,2.1731,2.1744,2.1822,2.1851,2.186,2.1984,2.1883,2.189,2.1894,2.1897,2.2197,2.22,0,0,0,0,0,0,2.1544,2.1562,2.1729,2.1735,2.1614,2.1686,2.1698,2.174,2.1794,2.1799,2.1747,2.1742,2.184,2.1851,2.1863,2.1995,2.1891,2.1898,2.1902,2.2193,2.2197,2.2201,0,0,0,0,0,0,2.154,2.156,2.1725,2.1648,2.1668,2.1694,2.1741,2.1744,2.1772,2.1804,2.1808,2.1771,2.1838,2.1853,2.1945,2.1998,2.1901,2.1907,2.2189,2.2194,2.2199,2.2262,0,0,0,0,0,0,2.1533,2.1558,2.1603,2.1649,2.1672,2.1808,2.1745,2.1748,2.1785,2.1779,2.1828,2.1833,2.1836,2.1935,2.1953,2.2006,2.1913,2.2184,2.2191,2.2198,2.2255,2.2269,2.228,0,0,0,0,0,2.1525,2.1617,2.1605,2.1626,2.1729,2.1811,2.1824,2.1827,2.179,2.1833,2.1853,2.1831,2.199,2.1945,2.1964,2.2021,2.2181,2.2189,2.2197,2.2249,2.2266,2.228,0,0,0,0,0,0,2.1577,2.1623,2.1611,2.1721,2.1762,2.1804,2.186,2.1845,2.1897,2.189,2.1891,2.1902,2.1996,2.2018,2.1967,2.213,2.2079,2.2092,2.2112,2.2128,2.2141,2.2132,2.1919,0,0,0,0,0,2.1601,2.1665,2.1702,2.1795,2.1816,2.1834,2.187,2.1869,2.1911,2.1928,2.1955,2.1996,2.2054,2.2093,2.2149,2.2258,2.2266,2.2306,2.2319,2.2329,2.2339,2.2394,2.2411,2.2228,2.2228,2.2228,0,0,2.1652,2.1685,2.1725,2.1806,2.1838,2.1901,2.1849,2.192,2.1966,2.1939,2.2027,2.2047,2.2093,2.2193,2.2238,2.2214,2.2391,2.234,2.2348,2.2352,2.2404,2.2421,2.2437,2.2234,2.2233,2.2232,0,0,2.1776,2.1809,2.1888,2.192,2.1969,2.198,2.1998,2.2042,2.2054,2.2143,2.2122,2.2176,2.2279,2.231,2.234,2.2471,2.2452,2.2489,2.2555,2.2608,2.2622,2.2635,2.2678,2.2694,2.25,2.25,2.25,0,2.1833,2.1929,2.1931,2.2002,2.2036,2.2013,2.2091,2.2123,2.2187,2.221,2.2181,2.2306,2.2335,2.244,2.2472,2.2498,2.2516,2.2483,2.262,2.2633,2.2645,2.2686,2.2703,2.2504,2.2504,2.2503,2.2503,0,2.1994,2.2061,2.2119,2.218,2.2221,2.2295,2.2306,2.2347,2.2341,2.2354,2.2441,2.2475,2.2535,2.2561,2.2557,2.2664,2.2647,2.262,2.2568,2.2666,2.2705,2.2721,2.251,2.2508,2.2507,2.2506,0,0,2.2155,2.2213,2.2234,2.226,2.231,2.236,2.2432,2.2491,2.2524,2.2568,2.2625,2.271,2.2684,2.2718,2.2716,2.2764,2.286,2.273,2.2731,2.275,2.2976,2.2994,2.3012,2.2848,2.2851,2.2854,2.2971,0,2.228,2.2407,2.2408,2.2524,2.2582,2.256,2.2622,2.2657,2.2671,2.2721,2.2735,2.2794,2.2757,2.2776,2.2822,2.2839,2.2905,2.2831,2.2899,2.2901,2.2886,2.3033,2.3053,2.3162,2.2986,2.2989,2.2991,0,2.2444,2.2491,2.2612,2.2649,2.2674,2.273,2.2781,2.2831,2.2869,2.2875,2.2911,2.2901,2.297,2.2918,2.3012,2.2961,2.2989,2.3001,2.3005,2.3009,2.295,2.3038,2.3198,2.3213,2.3015,2.3013,2.3011,0,2.2544,2.2639,2.2722,2.2745,2.2791,2.283,2.2851,2.2886,2.292,2.2964,2.2985,2.3038,2.3066,2.3105,2.3109,2.3071,2.3202,2.3151,2.3206,2.3206,2.3233,2.3231,2.3396,2.3256,2.3256,2.3255,2.3255,0,2.2683,2.2757,2.2767,2.2818,2.2899,2.2899,2.2978,2.2996,2.3026,2.3078,2.3062,2.3111,2.3114,2.3163,2.3166,2.324,2.3254,2.3259,2.3258,2.3259,2.3258,2.3275,2.3267,2.326,2.3259,2.3258,2.3257,0,2.2808,2.2819,2.2908,2.2943,2.2953,2.3011,2.304,2.3087,2.3098,2.3163,2.3178,2.3195,2.3251,2.3259,2.3325,2.3327,2.3416,2.3409,2.3403,2.3401,2.3454,2.3448,2.3634,2.3657,2.3505,2.3506,2.3507,0,2.2895,2.2951,2.2991,2.3025,2.3047,2.3102,2.3135,2.3137,2.3172,2.3217,2.3258,2.3313,2.3357,2.3447,2.3464,2.3513,2.3505,2.3567,2.3513,2.351,2.3502,2.3497,2.3501,2.3577,2.3579,2.358,2.3581,0,2.3046,2.3047,2.3097,2.3147,2.3187,2.3227,2.3264,2.3292,2.3297,2.3337,2.3394,2.3428,2.3494,2.3547,2.3595,2.3614,2.3598,2.3598,2.3613,2.3613,2.3606,2.3607,2.3428,2.3594,2.3593,2.3592,2.3591,2.359,2.3152,2.3199,2.3233,2.3288,2.3315,2.3349,2.3394,2.3409,2.3457,2.3511,2.3508,2.357,2.3603,2.3666,2.3688,2.3735,2.3714,2.3737,2.3742,2.3747,2.375,2.36,2.3744,2.3744,2.3743,2.3743,2.3743,0,2.3299,2.3319,2.3369,2.342,2.3462,2.3443,2.3482,2.3517,2.3572,2.3605,2.3647,2.371,2.3761,2.3781,2.3829,2.3862,2.3856,2.3875,2.3871,2.3875,2.3768,2.3748,2.3879,2.3879,2.3879,2.3879,2.3879,2.3879,2.338,2.3457,2.3462,2.355,2.357,2.363,2.3654,2.3683,2.3709,2.378,2.3822,2.3834,2.386,2.391,2.3954,2.3958,2.3975,2.3997,2.3998,2.3897,2.3883,2.387,2.3851,2.4002,2.4002,2.4101,2.4101,2.4102]}]]